Weather History for KSEP - February, 2013

Change the Weather History Date:

Sunday, February 24, 2013

  Actual Average Record
Temperature  
Mean Temperature 51 °F -  
Max Temperature 69 °F 64 °F 87 °F (2009)
Min Temperature 33 °F 39 °F 16 °F (1960)
Degree Days  
Heating Degree Days 14    
Growing Degree Days 1 (Base 50)    
Moisture  
Dew Point 37 °F    
Average Humidity 59    
Maximum Humidity 93    
Minimum Humidity 31    
Precipitation  
Precipitation 0.00 in - - ()
Sea Level Pressure  
Sea Level Pressure 29.79 in    
Wind  
Wind Speed 9 mph (SSE)    
Max Wind Speed 21 mph    
Max Gust Speed 29 mph    
Visibility 10 miles    
Events      
Averages and records for this station are not official NWS values.
T = Trace of Precipitation, MM = Missing Value Source: NWS Daily Summary

Daily Weather History Graph

Daily Weather History Graph

Search for Another Location

Airport or City:

Trip Planner

Search our weather history database for the weather conditions in past years. The results will help you decide how hot, cold, wet, or windy it might be!

Date:

Astronomy

Feb. 24, 2013 Rise Set
Actual Time 7:05 AM CST 6:26 PM CST
Civil Twilight 6:40 AM CST 6:51 PM CST
Nautical Twilight 6:12 AM CST 7:19 PM CST
Astronomical Twilight 5:43 AM CST 7:48 PM CST
Moon 5:39 PM CST (2/24) 6:02 AM CST (2/24)
Length of Visible Light 12h 10m
Length of Day
11h 21m
Waxing Gibbous, 99% of the Moon is Illuminated
Feb 24
Waxing Gibbous
Feb 25
Full
Mar 4
Last Quarter
Mar 11
New
Mar 19
First Quarter

Hourly Weather History & Observations

Time (CST) Temp. Windchill Dew Point Humidity Pressure Visibility Wind Dir Wind Speed Gust Speed Precip Events Conditions
12:15 AM 41.0 °F 35.8 °F 32.0 °F 70% 29.91 in 10.0 mi SSE 8.1 mph - N/A   Clear
12:35 AM 41.0 °F 38.0 °F 32.0 °F 70% 29.91 in 10.0 mi SSE 4.6 mph - N/A   Clear
12:55 AM 37.4 °F 33.8 °F 32.0 °F 81% 29.91 in 10.0 mi SSE 4.6 mph - N/A   Clear
1:15 AM 37.4 °F 33.8 °F 32.0 °F 81% 29.92 in 10.0 mi South 4.6 mph - N/A   Clear
1:35 AM 37.4 °F 32.8 °F 32.0 °F 81% 29.92 in 10.0 mi SSE 5.8 mph - N/A   Clear
1:55 AM 37.4 °F 32.8 °F 32.0 °F 81% 29.91 in 10.0 mi SE 5.8 mph - N/A   Clear
2:15 AM 37.4 °F 33.8 °F 32.0 °F 81% 29.90 in 10.0 mi SE 4.6 mph - N/A   Clear
2:35 AM 37.4 °F - 32.0 °F 81% 29.89 in 10.0 mi Calm Calm - N/A   Clear
2:55 AM 37.4 °F 33.8 °F 32.0 °F 81% 29.89 in 10.0 mi SSE 4.6 mph - N/A   Clear
3:15 AM 37.4 °F 33.8 °F 32.0 °F 81% 29.88 in 10.0 mi SSE 4.6 mph - N/A   Clear
3:35 AM 37.4 °F 32.8 °F 32.0 °F 81% 29.88 in 10.0 mi SSE 5.8 mph - N/A   Clear
3:55 AM 37.4 °F - 32.0 °F 81% 29.89 in 10.0 mi Calm Calm - N/A   Clear
4:15 AM 37.4 °F - 32.0 °F 81% 29.88 in 10.0 mi Calm Calm - N/A   Clear
4:35 AM 37.4 °F 34.9 °F 32.0 °F 81% 29.88 in 10.0 mi ESE 3.5 mph - N/A   Clear
4:55 AM 37.4 °F 34.9 °F 32.0 °F 81% 29.88 in 10.0 mi SE 3.5 mph - N/A   Clear
5:15 AM 35.6 °F - 32.0 °F 87% 29.88 in 10.0 mi Calm Calm - N/A   Clear
5:35 AM 35.6 °F 31.7 °F 32.0 °F 87% 29.89 in 10.0 mi South 4.6 mph - N/A   Clear
5:55 AM 33.8 °F 28.6 °F 32.0 °F 93% 29.89 in 10.0 mi South 5.8 mph - N/A   Clear
6:15 AM 35.6 °F 30.7 °F 32.0 °F 87% 29.88 in 10.0 mi SSE 5.8 mph - N/A   Clear
6:35 AM 35.6 °F 31.7 °F 32.0 °F 87% 29.88 in 10.0 mi South 4.6 mph - N/A   Clear
6:55 AM 33.8 °F 30.8 °F 32.0 °F 93% 29.89 in 10.0 mi South 3.5 mph - N/A   Clear
7:15 AM 33.8 °F 30.8 °F 32.0 °F 93% 29.88 in 10.0 mi SSE 3.5 mph - N/A   Clear
7:35 AM 35.6 °F 31.7 °F 32.0 °F 87% 29.88 in 10.0 mi South 4.6 mph - N/A   Clear
7:55 AM 35.6 °F 30.7 °F 32.0 °F 87% 29.88 in 10.0 mi South 5.8 mph - N/A   Clear
8:15 AM 39.2 °F 33.6 °F 32.0 °F 75% 29.89 in 10.0 mi SSE 8.1 mph - N/A   Clear
8:35 AM 44.6 °F 40.7 °F 33.8 °F 66% 29.89 in 10.0 mi SSE 6.9 mph - N/A   Clear
8:55 AM 46.4 °F 41.5 °F 35.6 °F 66% 29.90 in 10.0 mi South 10.4 mph - N/A   Clear
9:15 AM 50.0 °F - 35.6 °F 58% 29.90 in 10.0 mi SSE 11.5 mph - N/A   Clear
9:35 AM 51.8 °F - 35.6 °F 54% 29.90 in 10.0 mi South 11.5 mph - N/A   Clear
9:55 AM 53.6 °F - 35.6 °F 51% 29.89 in 10.0 mi SSE 16.1 mph 24.2 mph N/A   Clear
10:15 AM 53.6 °F - 37.4 °F 54% 29.88 in 10.0 mi South 11.5 mph - N/A   Clear
10:35 AM 57.2 °F - 39.2 °F 51% 29.87 in 10.0 mi SSE 13.8 mph 23.0 mph N/A   Clear
10:55 AM 59.0 °F - 39.2 °F 48% 29.87 in 10.0 mi South 18.4 mph 24.2 mph N/A   Clear
11:15 AM 59.0 °F - 37.4 °F 45% 29.86 in 10.0 mi SSE 15.0 mph - N/A   Clear
11:35 AM 60.8 °F - 37.4 °F 42% 29.85 in 10.0 mi SSE 15.0 mph 24.2 mph N/A   Clear
11:55 AM 62.6 °F - 35.6 °F 37% 29.84 in 10.0 mi SSE 15.0 mph 25.3 mph N/A   Clear
12:15 PM 62.6 °F - 37.4 °F 39% 29.82 in 10.0 mi SSE 15.0 mph 25.3 mph N/A   Clear
12:35 PM 64.4 °F - 37.4 °F 37% 29.81 in 10.0 mi South 17.3 mph 25.3 mph N/A   Clear
12:55 PM 64.4 °F - 39.2 °F 40% 29.80 in 10.0 mi SSE 13.8 mph 25.3 mph N/A   Clear
1:15 PM 66.2 °F - 37.4 °F 35% 29.78 in 10.0 mi SSE 18.4 mph 25.3 mph N/A   Clear
1:35 PM 68.0 °F - 37.4 °F 33% 29.77 in 10.0 mi SSE 15.0 mph 23.0 mph N/A   Clear
1:55 PM 68.0 °F - 37.4 °F 33% 29.75 in 10.0 mi SSE 18.4 mph 23.0 mph N/A   Clear
2:15 PM 68.0 °F - 37.4 °F 33% 29.75 in 10.0 mi South 16.1 mph 25.3 mph N/A   Clear
2:35 PM 69.8 °F - 37.4 °F 31% 29.74 in 10.0 mi SSE 15.0 mph 21.9 mph N/A   Clear
2:55 PM 68.0 °F - 37.4 °F 33% 29.73 in 10.0 mi South 13.8 mph 25.3 mph N/A   Clear
3:15 PM 69.8 °F - 37.4 °F 31% 29.72 in 10.0 mi SSE 18.4 mph 23.0 mph N/A   Clear
3:35 PM 69.8 °F - 37.4 °F 31% 29.71 in 10.0 mi SSE 18.4 mph 28.8 mph N/A   Clear
3:55 PM 69.8 °F - 37.4 °F 31% 29.71 in 10.0 mi South 11.5 mph 26.5 mph N/A   Clear
4:15 PM 69.8 °F - 37.4 °F 31% 29.70 in 10.0 mi South 19.6 mph 25.3 mph N/A   Clear
4:35 PM 69.8 °F - 37.4 °F 31% 29.69 in 10.0 mi SSE 15.0 mph 21.9 mph N/A   Clear
4:55 PM 69.8 °F - 37.4 °F 31% 29.69 in 10.0 mi SSE 16.1 mph 25.3 mph N/A   Clear
5:15 PM 69.8 °F - 37.4 °F 31% 29.68 in 10.0 mi SSE 19.6 mph 26.5 mph N/A   Clear
5:35 PM 68.0 °F - 37.4 °F 33% 29.68 in 10.0 mi SSE 13.8 mph 23.0 mph N/A   Clear
5:55 PM 68.0 °F - 39.2 °F 35% 29.68 in 10.0 mi SSE 10.4 mph - N/A   Clear
6:15 PM 66.2 °F - 41.0 °F 40% 29.67 in 10.0 mi SE 10.4 mph 21.9 mph N/A   Clear
6:35 PM 64.4 °F - 41.0 °F 42% 29.67 in 10.0 mi SE 13.8 mph - N/A   Clear
6:55 PM 62.6 °F - 41.0 °F 45% 29.67 in 10.0 mi SE 11.5 mph - N/A   Clear
7:15 PM 62.6 °F - 41.0 °F 45% 29.68 in 10.0 mi SE 10.4 mph - N/A   Clear
7:35 PM 60.8 °F - 42.8 °F 52% 29.68 in 10.0 mi ESE 11.5 mph 16.1 mph N/A   Clear
7:55 PM 60.8 °F - 42.8 °F 52% 29.68 in 10.0 mi SE 15.0 mph - N/A   Clear
8:15 PM 60.8 °F - 42.8 °F 52% 29.67 in 10.0 mi SE 13.8 mph - N/A   Clear
8:35 PM 59.0 °F - 42.8 °F 55% 29.67 in 10.0 mi SE 12.7 mph 20.7 mph N/A   Clear
8:55 PM 59.0 °F - 42.8 °F 55% 29.67 in 10.0 mi SE 13.8 mph 18.4 mph N/A   Clear
9:15 PM 59.0 °F - 42.8 °F 55% 29.67 in 10.0 mi ESE 12.7 mph 18.4 mph N/A   Scattered Clouds
9:35 PM 59.0 °F - 42.8 °F 55% 29.66 in 10.0 mi SE 15.0 mph 21.9 mph N/A   Mostly Cloudy
9:55 PM 59.0 °F - 42.8 °F 55% 29.64 in 10.0 mi SE 15.0 mph - N/A   Scattered Clouds
10:15 PM 59.0 °F - 44.6 °F 59% 29.64 in 10.0 mi SE 16.1 mph 20.7 mph N/A   Clear
10:35 PM 59.0 °F - 44.6 °F 59% 29.62 in 10.0 mi SE 17.3 mph 25.3 mph N/A   Clear
10:55 PM 59.0 °F - 46.4 °F 63% 29.60 in 10.0 mi SE 17.3 mph 25.3 mph N/A   Clear
11:15 PM 59.0 °F - 46.4 °F 63% 29.60 in 10.0 mi SE 16.1 mph 24.2 mph N/A   Scattered Clouds
11:35 PM 59.0 °F - 46.4 °F 63% 29.57 in 10.0 mi SE 20.7 mph 27.6 mph N/A   Mostly Cloudy
11:55 PM 59.0 °F - 48.2 °F 67% 29.58 in 10.0 mi SE 18.4 mph 23.0 mph N/A   Overcast